period_start,C,m1,H,J0,J1,J2,J3,J4,J5,JA,JB,JC,JD,JJ,JK,JN,#
2017-07-23 00:03:48,0.01,0.47,0.00,25.25,29.50,32.00,13.73,43.93,1011.20,2022.92,3343.04,2936.01,3360.45,599.94,588.34,21.61,0000 0000 0000 0000 000000
2017-07-23 00:08:49,0.01,0.47,0.00,25.23,29.48,31.97,13.79,43.96,1011.24,2022.98,3343.04,2936.05,3360.51,600.15,588.54,21.66,0000 0000 0000 0000 000000
2017-07-23 00:13:50,0.01,0.47,0.00,25.21,29.46,31.96,13.69,43.98,1011.24,2022.99,3342.49,2936.00,3360.01,599.98,588.47,21.71,0000 0000 0000 0000 000000
2017-07-23 00:18:52,0.00,0.47,0.00,25.18,29.44,31.95,13.77,44.09,1011.24,2022.99,3342.57,2936.00,3360.01,600.44,588.98,21.76,0000 0000 0000 0000 000000
2017-07-23 00:23:53,-0.00,0.47,0.00,25.15,29.42,31.93,13.70,43.85,1011.24,2022.99,3342.59,2936.01,3360.04,599.90,588.57,21.81,0000 0000 0000 0000 000000
2017-07-23 00:28:54,0.01,0.47,0.00,25.13,29.40,31.92,13.74,43.89,1011.24,2023.01,3342.64,2936.02,3360.13,600.07,588.73,21.86,0000 0000 0000 0000 000000
2017-07-23 00:33:56,-0.00,0.47,0.00,25.12,29.37,31.89,13.81,44.00,1011.24,2023.06,3342.45,2936.09,3360.20,600.42,588.95,21.91,0000 0000 0000 0000 000000
2017-07-23 00:38:57,0.01,0.47,0.00,25.10,29.35,31.87,13.68,43.97,1011.24,2023.13,3342.23,2936.14,3360.28,599.76,588.47,21.96,0000 0000 0000 0000 000000
2017-07-23 00:43:58,0.01,0.47,0.00,25.07,29.33,31.84,13.72,44.08,1011.24,2023.44,3342.44,2936.54,3360.61,599.81,588.56,22.01,0000 0000 0000 0000 000000
2017-07-23 00:49:00,0.01,0.47,0.00,25.05,29.31,31.81,13.72,44.00,1011.24,2023.78,3342.61,2936.87,3360.85,600.08,588.85,22.06,0000 0000 0000 0000 000000
2017-07-23 00:54:01,0.01,0.47,0.00,25.02,29.29,31.79,13.80,43.98,1011.24,2023.88,3342.31,2936.87,3360.78,600.43,589.29,22.11,0000 0000 0000 0000 000000
2017-07-23 00:59:02,0.00,0.47,0.00,25.00,29.26,31.78,13.75,44.00,1011.25,2023.98,3342.51,2936.98,3360.97,600.05,589.09,22.16,0000 0000 0000 0000 000000
2017-07-23 01:04:03,0.00,0.47,0.00,24.99,29.25,31.75,13.75,43.89,1011.43,2023.98,3342.48,2936.99,3360.98,600.08,589.08,22.21,0000 0000 0000 0000 000000
2017-07-23 01:09:05,0.00,0.47,0.00,24.96,29.22,31.73,13.77,44.07,1011.67,2023.98,3342.24,2936.99,3360.97,599.74,589.04,22.26,0000 0000 0000 0000 000000
2017-07-23 01:14:06,-0.00,0.47,0.00,24.94,29.20,31.71,13.75,43.97,1011.65,2023.99,3342.59,2936.99,3360.99,600.00,589.26,22.31,0000 0000 0000 0000 000000
2017-07-23 01:19:08,0.01,0.47,0.00,24.92,29.17,31.70,13.75,43.92,1011.69,2023.99,3342.38,2937.00,3360.99,599.76,589.06,22.36,0000 0000 0000 0000 000000
2017-07-23 01:24:09,0.00,0.47,0.00,24.90,29.16,31.67,13.74,43.90,1011.72,2024.00,3342.30,2937.01,3360.99,600.09,589.42,22.41,0000 0000 0000 0000 000000
2017-07-23 01:29:11,0.00,0.47,0.00,24.88,29.13,31.65,13.71,44.07,1011.49,2024.02,3342.14,2937.07,3360.99,599.84,589.13,22.46,0000 0000 0000 0000 000000
2017-07-23 01:34:12,0.01,0.47,0.00,24.87,29.11,31.62,13.72,44.00,1011.29,2024.10,3342.14,2937.25,3360.99,599.83,589.03,22.51,0000 0000 0000 0000 000000
2017-07-23 01:39:13,0.02,0.48,0.00,24.87,29.09,31.60,13.68,44.02,1011.33,2024.25,3342.05,2937.37,3360.99,599.97,589.24,22.56,0000 0000 0000 0000 000000
2017-07-23 01:44:14,0.01,0.48,0.00,24.85,29.07,31.56,13.73,44.13,1011.29,2024.53,3342.01,2937.66,3360.99,599.98,589.17,22.61,0000 0000 0000 0000 000000
2017-07-23 01:49:15,0.03,0.48,0.00,24.83,29.05,31.54,13.80,44.11,1011.36,2024.87,3342.01,2937.82,3360.99,599.80,589.12,22.66,0000 0000 0000 0000 000000
2017-07-23 01:54:17,-0.00,0.48,0.00,24.81,29.02,31.51,13.79,44.10,1011.44,2024.96,3342.00,2937.92,3360.99,599.90,589.39,22.71,0000 0000 0000 0000 000000
2017-07-23 01:59:18,0.00,0.48,0.00,24.78,29.00,31.50,13.76,44.11,1011.71,2024.99,3342.00,2937.96,3360.99,599.89,589.54,22.76,0000 0000 0000 0000 000000
2017-07-23 02:04:19,0.00,0.48,0.00,24.77,28.98,31.47,13.74,44.14,1011.73,2024.99,3341.99,2937.97,3360.99,600.15,589.81,22.81,0000 0000 0000 0000 000000
2017-07-23 02:09:20,0.00,0.48,0.00,24.76,28.96,31.45,13.73,44.10,1011.79,2024.99,3341.99,2937.99,3360.99,599.73,589.44,22.86,0000 0000 0000 0000 000000
2017-07-23 02:14:22,0.00,0.48,0.00,24.75,28.95,31.44,13.73,44.00,1011.95,2024.99,3341.99,2937.99,3360.99,600.09,589.92,22.91,0000 0000 0000 0000 000000
2017-07-23 02:19:23,0.00,0.48,0.00,24.71,28.92,31.43,13.75,44.03,1012.00,2025.00,3341.98,2937.99,3360.99,599.58,589.48,22.96,0000 0000 0000 0000 000000
2017-07-23 02:24:24,0.00,0.48,0.00,24.70,28.91,31.40,13.80,44.07,1011.95,2025.02,3341.99,2937.99,3360.99,600.28,590.22,23.01,0000 0000 0000 0000 000000
2017-07-23 02:29:26,0.00,0.48,0.00,24.68,28.89,31.38,13.78,44.02,1011.97,2025.07,3341.98,2937.99,3360.99,600.18,590.11,23.06,0000 0000 0000 0000 000000
2017-07-23 02:34:27,0.03,0.48,0.00,24.67,28.87,31.37,13.81,44.17,1011.94,2025.25,3341.96,2938.00,3360.99,600.11,590.13,23.11,0000 0000 0000 0000 000000
2017-07-23 02:39:28,0.02,0.48,0.00,24.67,28.85,31.35,13.78,44.04,1012.08,2025.46,3341.78,2938.01,3360.99,600.10,590.12,23.16,0000 0000 0000 0000 000000
2017-07-23 02:44:30,0.03,0.48,0.00,24.67,28.84,31.33,13.75,44.15,1012.13,2025.84,3341.70,2938.03,3360.99,599.99,589.97,23.21,0000 0000 0000 0000 000000
2017-07-23 02:49:31,0.01,0.48,0.00,24.65,28.82,31.31,13.77,44.21,1012.17,2025.92,3341.41,2938.08,3360.99,600.00,590.12,23.26,0000 0000 0000 0000 000000
2017-07-23 02:54:32,0.01,0.48,0.00,24.64,28.80,31.30,13.76,44.18,1012.14,2025.95,3341.04,2938.04,3361.00,599.85,589.94,23.31,0000 0000 0000 0000 000000
2017-07-23 02:59:33,-0.00,0.48,0.00,24.60,28.79,31.29,13.74,44.16,1012.21,2025.97,3341.00,2938.04,3361.00,600.05,590.31,23.36,0000 0000 0000 0000 000000
2017-07-23 03:04:35,0.00,0.48,0.00,24.59,28.77,31.28,13.78,44.17,1012.20,2025.99,3341.00,2938.10,3361.00,600.43,590.74,23.41,0000 0000 0000 0000 000000
2017-07-23 03:09:36,0.00,0.48,0.00,24.58,28.76,31.25,13.81,44.20,1012.22,2025.99,3340.99,2938.10,3360.98,599.99,590.26,23.46,0000 0000 0000 0000 000000
2017-07-23 03:14:37,0.00,0.48,0.00,24.58,28.75,31.25,13.76,43.90,1012.22,2025.99,3340.91,2938.06,3360.96,600.01,590.33,23.51,0000 0000 0000 0000 000000
2017-07-23 03:19:38,0.01,0.48,0.00,24.60,28.73,31.26,13.73,44.18,1012.22,2025.99,3340.60,2938.07,3360.85,600.06,590.30,23.56,0000 0000 0000 0000 000000
2017-07-23 03:24:39,0.01,0.48,0.00,24.65,28.72,31.33,13.82,44.18,1012.22,2025.99,3340.15,2938.08,3360.54,600.41,590.56,23.61,0000 0000 0000 0000 000000
2017-07-23 03:29:41,0.01,0.49,0.00,24.66,28.72,31.26,13.77,44.26,1012.22,2025.99,3340.01,2938.03,3360.17,600.20,590.30,23.66,0000 0000 0000 0000 000000
2017-07-23 03:34:42,0.00,0.49,0.00,24.68,28.72,31.19,13.76,44.73,1012.22,2025.99,3339.99,2938.01,3360.01,600.21,590.31,23.71,0000 0000 0000 0000 000000
2017-07-23 03:39:43,0.00,0.49,0.00,24.75,28.72,31.19,13.68,45.05,1012.24,2025.99,3339.95,2938.00,3359.99,599.44,589.40,23.76,0000 0000 0000 0000 000000
2017-07-23 03:44:45,0.00,0.49,0.00,24.82,28.72,31.19,13.75,45.16,1012.26,2025.99,3339.79,2938.00,3359.99,600.03,589.86,23.81,0000 0000 0000 0000 000000
2017-07-23 03:49:46,0.01,0.49,0.00,24.89,28.74,31.22,13.75,45.13,1012.54,2025.99,3339.20,2937.99,3359.87,600.13,589.95,23.86,0000 0000 0000 0000 000000
2017-07-23 03:54:47,0.01,0.49,0.00,24.93,28.75,31.27,13.71,45.29,1012.69,2025.98,3339.00,2937.94,3359.18,599.91,589.79,23.91,0000 0000 0000 0000 000000
2017-07-23 03:59:48,0.01,0.49,0.00,24.97,28.77,31.30,13.80,45.10,1012.71,2025.97,3339.00,2937.71,3359.02,600.01,589.76,23.96,0000 0000 0000 0000 000000
2017-07-23 04:04:49,0.01,0.49,0.00,25.01,28.80,31.34,13.75,45.22,1012.71,2025.93,3338.84,2937.27,3358.98,600.31,590.04,24.01,0000 0000 0000 0000 000000
2017-07-23 04:09:50,-0.02,0.49,0.00,25.04,28.82,31.39,13.75,45.08,1012.72,2025.55,3338.10,2937.02,3358.47,599.80,589.42,24.06,0000 0000 0000 0000 000000
2017-07-23 04:14:52,0.02,0.49,0.00,25.07,28.85,31.45,13.79,45.08,1012.76,2025.63,3338.00,2937.00,3358.05,600.28,589.93,24.11,0000 0000 0000 0000 000000
2017-07-23 04:19:53,-0.03,0.49,0.00,25.10,28.87,31.50,13.75,45.05,1012.92,2025.17,3337.72,2936.99,3357.99,600.07,589.75,24.16,0000 0000 0000 0000 000000
2017-07-23 04:24:54,0.01,0.49,0.00,25.11,28.90,31.59,13.79,45.33,1013.08,2025.02,3337.05,2936.86,3357.60,600.09,589.65,24.21,0000 0000 0000 0000 000000
2017-07-23 04:29:56,0.02,0.49,0.00,25.12,28.92,31.66,13.76,45.08,1013.17,2025.01,3336.99,2936.37,3357.05,600.24,590.05,24.26,0000 0000 0000 0000 000000
2017-07-23 04:34:57,0.02,0.49,0.00,25.13,28.95,31.74,13.82,45.19,1013.20,2025.00,3336.56,2936.04,3356.99,600.37,590.17,24.31,0000 0000 0000 0000 000000
2017-07-23 04:39:58,0.01,0.49,0.00,25.13,28.98,31.83,13.80,45.04,1013.20,2025.00,3336.04,2936.00,3356.68,600.36,590.13,24.36,0000 0000 0000 0000 000000
2017-07-23 04:45:00,0.01,0.49,0.00,25.13,29.00,31.93,13.80,45.47,1013.20,2024.99,3335.96,2935.99,3356.05,599.74,589.49,24.41,0000 0000 0000 0000 000000
2017-07-23 04:50:01,0.01,0.49,0.00,25.13,29.02,31.97,13.72,45.27,1013.21,2024.93,3335.26,2935.78,3355.99,599.55,589.34,24.46,0000 0000 0000 0000 000000
2017-07-23 04:55:02,0.01,0.49,0.00,25.12,29.05,32.02,13.83,45.25,1013.26,2024.76,3335.00,2935.18,3355.63,600.20,589.99,24.51,0000 0000 0000 0000 000000
2017-07-23 05:00:04,-0.01,0.49,0.00,25.12,29.07,32.06,13.80,45.19,1013.37,2024.62,3334.96,2935.03,3355.07,600.17,590.06,24.56,0000 0000 0000 0000 000000
2017-07-23 05:05:05,-0.02,0.49,0.00,25.12,29.09,32.09,13.87,45.32,1013.33,2024.18,3334.35,2935.00,3355.00,600.00,589.91,24.62,0000 0000 0000 0000 000000
2017-07-23 05:10:06,-0.01,0.49,0.00,25.10,29.10,32.12,13.80,45.25,1013.48,2024.07,3334.01,2934.99,3354.94,600.42,590.42,24.67,0000 0000 0000 0000 000000
2017-07-23 05:15:07,0.01,0.49,0.00,25.10,29.12,32.13,13.78,45.05,1013.66,2024.06,3333.98,2934.98,3354.46,600.05,590.15,24.72,0000 0000 0000 0000 000000
2017-07-23 05:20:09,0.02,0.49,0.00,25.08,29.14,32.15,13.76,44.98,1013.69,2024.01,3333.54,2934.75,3354.03,599.64,589.75,24.77,0000 0000 0000 0000 000000
2017-07-23 05:25:10,0.01,0.49,0.00,25.06,29.15,32.17,13.83,44.94,1013.69,2024.02,3333.04,2934.42,3354.00,599.95,590.08,24.82,0000 0000 0000 0000 000000
2017-07-23 05:30:11,0.01,0.49,0.00,25.05,29.16,32.19,13.79,44.93,1013.68,2024.00,3332.99,2934.08,3353.78,600.02,590.31,24.87,0000 0000 0000 0000 000000
2017-07-23 05:35:12,0.01,0.49,0.00,25.05,29.17,32.19,13.80,45.09,1013.69,2024.00,3332.84,2934.01,3353.16,599.76,589.96,24.92,0000 0000 0000 0000 000000
2017-07-23 05:40:13,0.01,0.49,0.00,25.03,29.18,32.22,13.91,45.08,1013.69,2024.00,3332.14,2934.00,3353.01,600.77,591.04,24.97,0000 0000 0000 0000 000000
2017-07-23 05:45:15,0.00,0.49,0.00,25.02,29.20,32.19,13.80,45.24,1013.69,2024.00,3332.00,2933.98,3352.97,600.25,590.42,25.02,0000 0000 0000 0000 000000
2017-07-23 05:50:16,0.01,0.49,0.00,25.00,29.20,32.20,13.87,44.87,1013.69,2024.00,3331.86,2933.94,3352.69,599.72,590.06,25.07,0000 0000 0000 0000 000000
2017-07-23 05:55:17,0.02,0.50,0.00,24.98,29.20,32.22,13.81,44.78,1013.69,2024.00,3331.15,2933.79,3352.12,600.49,590.92,25.12,0000 0000 0000 0000 000000
2017-07-23 06:00:19,0.02,0.50,0.00,24.96,29.20,32.21,13.81,45.17,1013.70,2023.99,3331.00,2933.20,3352.01,600.00,590.39,25.17,0000 0000 0000 0000 000000
2017-07-23 06:05:20,0.00,0.50,0.00,24.94,29.20,32.21,13.87,44.96,1013.70,2023.99,3330.96,2933.05,3351.99,600.08,590.33,25.22,0000 0000 0000 0000 000000
2017-07-23 06:10:21,0.01,0.50,0.00,24.92,29.20,32.20,13.84,45.22,1013.72,2023.99,3330.61,2933.04,3351.95,600.35,590.86,25.27,0000 0000 0000 0000 000000
2017-07-23 06:15:22,0.01,0.50,0.00,24.90,29.20,32.20,13.83,45.10,1013.70,2023.99,3330.05,2933.00,3351.58,600.15,590.67,25.32,0000 0000 0000 0000 000000
2017-07-23 06:20:23,0.00,0.50,0.00,24.90,29.20,32.17,13.79,45.00,1013.70,2023.99,3330.00,2933.00,3351.19,600.07,590.57,25.37,0000 0000 0000 0000 000000
2017-07-23 06:25:25,0.01,0.50,0.00,24.88,29.20,32.19,13.79,45.22,1013.72,2023.99,3329.39,2932.96,3350.99,599.83,590.32,25.42,0000 0000 0000 0000 000000
2017-07-23 06:30:26,0.01,0.50,0.00,24.86,29.20,32.18,13.90,45.07,1013.85,2023.99,3329.00,2932.78,3350.71,600.52,591.08,25.47,0000 0000 0000 0000 000000
2017-07-23 06:35:27,0.02,0.50,0.00,24.85,29.20,32.18,13.86,45.32,1014.01,2023.99,3328.91,2932.59,3350.17,599.98,590.80,25.52,0000 0000 0000 0000 000000
2017-07-23 06:40:28,0.01,0.50,0.00,24.84,29.20,32.13,13.82,44.97,1014.08,2023.99,3328.36,2932.32,3350.02,600.24,590.98,25.57,0000 0000 0000 0000 000000
2017-07-23 06:45:30,0.00,0.50,0.00,24.82,29.18,32.14,13.71,44.60,1014.15,2023.99,3328.00,2932.06,3349.99,599.16,590.26,25.62,0000 0000 0000 0000 000000
2017-07-23 06:50:31,0.00,0.50,0.00,24.81,29.17,32.13,13.91,45.08,1014.17,2023.99,3327.94,2932.04,3349.95,600.73,591.72,25.67,0000 0000 0000 0000 000000
2017-07-23 06:55:32,0.02,0.50,0.00,24.80,29.17,32.13,13.79,45.58,1014.17,2023.99,3327.19,2932.00,3349.29,599.97,591.01,25.72,0000 0000 0000 0000 000000
2017-07-23 07:00:33,0.00,0.50,0.00,24.79,29.17,32.09,13.89,45.55,1014.17,2023.99,3327.00,2931.99,3349.02,599.91,591.05,25.77,0000 0000 0000 0000 000000
2017-07-23 07:05:35,0.00,0.50,0.00,24.76,29.15,32.08,13.90,45.31,1014.18,2023.99,3326.98,2931.98,3349.00,600.62,591.75,25.82,0000 0000 0000 0000 000000
2017-07-23 07:10:36,0.06,0.51,0.00,24.76,29.15,32.09,13.86,45.13,1014.19,2023.99,3325.79,2931.29,3348.30,600.15,591.25,25.87,0000 0000 0000 0000 000000
2017-07-23 07:15:37,0.02,0.51,0.00,24.75,29.15,32.07,13.72,44.79,1014.19,2023.99,3325.01,2930.96,3347.65,598.88,589.96,25.92,0000 0000 0000 0000 000000
2017-07-23 07:20:38,0.00,0.51,0.00,24.74,29.13,32.07,13.84,45.43,1014.18,2023.99,3324.91,2930.95,3347.19,600.32,591.51,25.97,0000 0000 0000 0000 000000
2017-07-23 07:25:39,0.01,0.51,0.00,24.72,29.12,32.04,13.74,45.16,1014.19,2023.99,3324.52,2930.84,3347.05,599.63,590.80,26.02,0000 0000 0000 0000 000000
2017-07-23 07:30:41,0.00,0.51,0.00,24.72,29.12,32.04,13.71,45.18,1014.24,2023.99,3324.43,2930.91,3347.04,599.63,590.85,26.07,0000 0000 0000 0000 000000
2017-07-23 07:35:42,0.00,0.51,0.00,24.70,29.10,32.02,13.88,45.33,1014.42,2023.99,3324.04,2930.89,3347.01,599.74,591.09,26.12,0000 0000 0000 0000 000000
2017-07-23 07:40:43,0.00,0.51,0.00,24.69,29.10,32.03,13.84,45.36,1014.59,2023.99,3324.02,2930.84,3347.00,600.61,592.19,26.17,0000 0000 0000 0000 000000
2017-07-23 07:45:45,0.00,0.51,0.00,24.67,29.08,32.01,13.88,45.58,1014.65,2023.99,3324.01,2930.88,3347.00,600.02,591.78,26.22,0000 0000 0000 0000 000000
2017-07-23 07:50:46,0.00,0.51,0.00,24.66,29.07,32.00,13.92,45.42,1014.66,2024.00,3324.00,2930.94,3347.00,600.85,592.52,26.27,0000 0000 0000 0000 000000
2017-07-23 07:55:47,0.00,0.51,0.00,24.65,29.07,32.00,13.85,45.35,1014.66,2024.01,3324.00,2930.97,3347.00,600.19,591.88,26.32,0000 0000 0000 0000 000000
2017-07-23 08:00:48,0.00,0.51,0.00,24.64,29.05,31.97,13.79,44.98,1014.66,2024.03,3324.00,2930.97,3347.00,599.83,591.45,26.37,0000 0000 0000 0000 000000
2017-07-23 08:05:49,0.00,0.51,0.00,24.62,29.05,31.96,13.85,45.06,1014.67,2024.09,3324.00,2930.97,3347.00,600.34,591.99,26.42,0000 0000 0000 0000 000000
2017-07-23 08:10:50,0.00,0.51,0.00,24.60,29.03,31.95,13.89,44.84,1014.66,2024.08,3324.00,2930.97,3347.00,600.65,592.25,26.47,0000 0000 0000 0000 000000
2017-07-23 08:15:52,0.01,0.51,0.00,24.59,29.02,31.93,13.87,45.39,1014.66,2024.08,3323.91,2930.86,3346.98,599.59,591.26,26.52,0000 0000 0000 0000 000000
2017-07-23 08:20:53,-0.00,0.51,0.00,24.57,29.01,31.93,13.81,45.18,1014.67,2024.03,3323.84,2930.76,3346.97,599.95,591.81,26.57,0000 0000 0000 0000 000000
2017-07-23 08:25:54,0.05,0.51,0.00,24.56,29.00,31.91,13.87,45.17,1014.68,2024.08,3323.05,2930.13,3346.20,600.34,592.07,26.62,0000 0000 0000 0000 000000
2017-07-23 08:30:56,0.01,0.51,0.00,24.55,29.00,31.92,13.81,44.93,1014.70,2024.12,3322.72,2929.99,3346.00,600.01,591.78,26.67,0000 0000 0000 0000 000000
2017-07-23 08:35:58,0.01,0.51,0.00,24.54,28.98,31.89,13.83,44.78,1014.70,2024.28,3322.86,2929.99,3345.99,599.87,591.71,26.72,0000 0000 0000 0000 000000
2017-07-23 08:40:59,0.01,0.51,0.00,24.52,28.97,31.86,13.89,44.84,1014.77,2024.48,3322.91,2929.99,3345.99,600.38,592.18,26.77,0000 0000 0000 0000 000000
2017-07-23 08:46:00,0.00,0.51,0.00,24.52,28.96,31.87,13.83,45.68,1014.94,2024.33,3322.36,2929.99,3345.98,599.54,591.63,26.82,0000 0000 0000 0000 000000
2017-07-23 08:51:01,0.00,0.51,0.00,24.51,28.95,31.85,13.86,45.45,1015.10,2024.26,3322.11,2929.98,3345.96,599.60,591.74,26.87,0000 0000 0000 0000 000000
2017-07-23 08:56:03,0.03,0.52,0.00,24.50,28.93,31.82,13.82,45.27,1015.10,2024.58,3322.01,2929.98,3345.78,599.85,592.00,26.92,0000 0000 0000 0000 000000
2017-07-23 09:01:04,0.02,0.52,0.00,24.49,28.92,31.82,13.90,45.21,1015.12,2024.88,3322.00,2929.99,3345.81,600.12,592.35,26.97,0000 0000 0000 0000 000000
2017-07-23 09:06:05,0.01,0.52,0.00,24.47,28.91,31.80,13.83,44.77,1015.09,2024.97,3322.00,2929.99,3345.79,599.57,591.74,27.02,0000 0000 0000 0000 000000
2017-07-23 09:11:07,-0.00,0.52,0.00,24.46,28.90,31.79,13.77,45.14,1015.13,2024.99,3322.00,2929.99,3345.93,600.36,592.60,27.07,0000 0000 0000 0000 000000
2017-07-23 09:16:08,0.00,0.52,0.00,24.44,28.90,31.80,13.82,44.73,1015.15,2024.99,3321.99,2929.99,3345.75,599.62,591.96,27.12,0000 0000 0000 0000 000000
2017-07-23 09:21:09,0.00,0.52,0.00,24.42,28.87,31.78,13.89,45.06,1015.15,2024.99,3321.96,2929.99,3345.65,600.14,592.48,27.17,0000 0000 0000 0000 000000
2017-07-23 09:26:10,0.01,0.52,0.00,24.42,28.87,31.79,13.82,44.96,1015.15,2024.99,3321.50,2929.92,3345.13,599.99,592.32,27.22,0000 0000 0000 0000 000000
2017-07-23 09:31:12,0.01,0.52,0.00,24.40,28.85,31.76,13.88,44.67,1015.15,2024.99,3321.05,2929.84,3345.01,599.69,592.01,27.27,0000 0000 0000 0000 000000
2017-07-23 09:36:13,0.01,0.52,0.00,24.40,28.85,31.75,13.97,45.51,1015.17,2024.99,3321.01,2929.61,3345.00,600.55,592.94,27.32,0000 0000 0000 0000 000000
2017-07-23 09:41:14,-0.00,0.52,0.00,24.39,28.84,31.74,13.83,44.88,1015.18,2024.99,3321.00,2929.51,3345.00,599.96,592.45,27.37,0000 0000 0000 0000 000000
2017-07-23 09:46:16,0.00,0.52,0.00,24.37,28.82,31.72,13.94,44.73,1015.25,2024.99,3321.00,2929.33,3345.00,600.29,592.66,27.43,0000 0000 0000 0000 000000
2017-07-23 09:51:17,0.01,0.52,0.00,24.37,28.81,31.71,13.85,44.77,1015.51,2025.04,3320.93,2929.16,3344.99,600.02,592.64,27.48,0000 0000 0000 0000 000000
2017-07-23 09:56:18,0.01,0.52,0.00,24.35,28.80,31.69,13.91,45.29,1015.56,2025.03,3320.54,2929.05,3344.92,600.07,592.73,27.53,0000 0000 0000 0000 000000
2017-07-23 10:01:20,0.01,0.52,0.00,24.35,28.80,31.68,13.87,44.97,1015.62,2025.05,3320.09,2929.01,3344.71,599.81,592.54,27.58,0000 0000 0000 0000 000000
2017-07-23 10:06:21,0.01,0.52,0.00,24.32,28.77,31.66,13.90,45.09,1015.63,2025.15,3320.07,2929.01,3344.74,600.22,593.12,27.63,0000 0000 0000 0000 000000
2017-07-23 10:11:22,0.01,0.52,0.00,24.31,28.77,31.66,13.85,44.86,1015.62,2025.07,3320.00,2929.00,3344.07,599.20,592.00,27.68,0000 0000 0000 0000 000000
2017-07-23 10:16:23,0.02,0.52,0.00,24.30,28.75,31.67,13.81,45.03,1015.63,2025.28,3320.00,2929.00,3344.01,600.02,592.96,27.73,0000 0000 0000 0000 000000
2017-07-23 10:21:24,0.03,0.52,0.00,24.30,28.75,31.64,13.88,44.98,1015.64,2025.47,3319.84,2929.00,3344.00,599.98,592.79,27.78,0000 0000 0000 0000 000000
2017-07-23 10:26:26,0.03,0.53,0.00,24.29,28.74,31.62,13.76,44.84,1015.64,2025.72,3319.45,2928.98,3343.99,599.57,592.42,27.83,0000 0000 0000 0000 000000
2017-07-23 10:31:27,0.01,0.53,0.00,24.27,28.72,31.62,13.92,44.73,1015.64,2025.95,3319.15,2928.97,3343.98,600.34,593.22,27.88,0000 0000 0000 0000 000000
2017-07-23 10:36:28,0.01,0.53,0.00,24.27,28.71,31.61,13.87,44.67,1015.64,2025.97,3319.00,2928.78,3343.82,600.00,592.98,27.93,0000 0000 0000 0000 000000
2017-07-23 10:41:30,0.03,0.53,0.00,24.25,28.70,31.61,13.90,45.31,1015.64,2025.96,3318.80,2928.20,3343.16,600.49,593.54,27.98,0000 0000 0000 0000 000000
2017-07-23 10:46:31,0.01,0.53,0.00,24.23,28.69,31.59,13.81,45.33,1015.64,2025.94,3318.17,2928.02,3343.00,599.74,592.75,28.03,0000 0000 0000 0000 000000
2017-07-23 10:51:32,0.00,0.53,0.00,24.22,28.67,31.58,13.90,45.48,1015.65,2025.93,3318.05,2928.01,3343.00,600.10,593.13,28.08,0000 0000 0000 0000 000000
2017-07-23 10:56:33,0.00,0.53,0.00,24.20,28.66,31.57,13.85,45.27,1015.65,2025.95,3318.02,2928.03,3343.00,600.07,593.06,28.13,0000 0000 0000 0000 000000
2017-07-23 11:01:34,0.00,0.53,0.00,24.19,28.65,31.57,13.86,45.23,1015.66,2025.99,3318.01,2928.04,3343.00,599.59,593.01,28.18,0000 0000 0000 0000 000000
2017-07-23 11:06:36,-0.00,0.53,0.00,24.17,28.64,31.56,13.88,45.00,1015.66,2025.99,3318.01,2928.06,3343.00,599.89,593.14,28.23,0000 0000 0000 0000 000000
2017-07-23 11:11:37,0.00,0.53,0.00,24.17,28.62,31.52,13.92,45.35,1015.68,2025.99,3318.00,2928.06,3343.00,600.25,593.37,28.28,0000 0000 0000 0000 000000
2017-07-23 11:16:38,0.00,0.53,0.00,24.16,28.62,31.54,13.91,45.17,1015.85,2025.99,3318.00,2928.03,3343.00,600.06,593.39,28.33,0000 0000 0000 0000 000000
2017-07-23 11:21:39,-0.00,0.53,0.00,24.15,28.60,31.51,13.84,45.02,1016.05,2025.99,3318.00,2928.08,3343.00,599.40,592.92,28.38,0000 0000 0000 0000 000000
2017-07-23 11:26:40,0.00,0.53,0.00,24.13,28.59,31.51,13.86,44.78,1016.10,2025.99,3317.98,2928.04,3342.99,599.84,593.29,28.43,0000 0000 0000 0000 000000
2017-07-23 11:31:42,0.00,0.53,0.00,24.11,28.57,31.49,13.86,44.85,1016.12,2025.99,3317.78,2928.01,3342.89,600.34,593.91,28.48,0000 0000 0000 0000 000000
2017-07-23 11:36:43,0.01,0.53,0.00,24.10,28.57,31.45,13.86,44.73,1016.13,2026.01,3317.57,2928.01,3342.70,599.89,593.45,28.53,0000 0000 0000 0000 000000
2017-07-23 11:41:44,0.01,0.53,0.00,24.08,28.55,31.43,13.91,44.81,1016.13,2026.01,3317.29,2928.01,3342.52,600.08,593.54,28.58,0000 0000 0000 0000 000000
2017-07-23 11:46:45,0.00,0.53,0.00,24.06,28.55,31.44,13.95,45.00,1016.13,2026.03,3317.20,2928.01,3342.38,600.49,594.00,28.63,0000 0000 0000 0000 000000
2017-07-23 11:51:47,0.00,0.53,0.00,24.05,28.52,31.42,13.85,45.48,1016.13,2026.02,3317.02,2928.00,3342.05,600.00,593.64,28.68,0000 0000 0000 0000 000000
2017-07-23 11:56:48,-0.00,0.53,0.00,24.05,28.52,31.42,13.94,45.59,1016.13,2026.02,3317.00,2928.00,3342.01,600.19,593.83,28.73,0000 0000 0000 0000 000000
2017-07-23 12:01:50,0.01,0.53,0.00,24.03,28.50,31.40,13.91,45.55,1016.13,2026.08,3316.97,2928.00,3342.00,600.12,593.84,28.78,0000 0000 0000 0000 000000
2017-07-23 12:06:51,0.02,0.53,0.00,24.01,28.49,31.37,13.93,45.48,1016.13,2026.10,3316.44,2927.99,3341.99,599.92,593.58,28.83,0000 0000 0000 0000 000000
2017-07-23 12:11:52,0.02,0.53,0.00,24.00,28.47,31.37,13.95,45.74,1016.13,2026.31,3316.20,2927.99,3341.99,600.30,594.09,28.88,0000 0000 0000 0000 000000
2017-07-23 12:16:54,0.01,0.54,0.00,23.98,28.46,31.36,13.86,45.77,1016.13,2026.53,3316.11,2927.99,3341.98,599.74,593.52,28.93,0000 0000 0000 0000 000000
2017-07-23 12:21:55,0.02,0.54,0.00,23.97,28.45,31.34,13.94,45.51,1016.13,2026.69,3316.03,2927.99,3341.97,600.02,593.77,28.98,0000 0000 0000 0000 000000
2017-07-23 12:26:57,0.09,0.54,0.00,23.96,28.43,31.35,13.87,45.49,1016.13,2026.92,3315.25,2927.38,3341.14,600.10,593.94,29.03,0000 0000 0000 0000 000000
2017-07-23 12:31:58,0.03,0.54,0.00,23.95,28.42,31.32,13.92,45.20,1016.13,2026.96,3314.02,2926.64,3340.04,599.84,593.69,29.08,0000 0000 0000 0000 000000
2017-07-23 12:36:59,0.00,0.54,0.00,23.93,28.41,31.31,13.89,45.11,1016.13,2026.98,3314.00,2926.81,3340.02,599.79,593.73,29.13,0000 0000 0000 0000 000000
2017-07-23 12:42:00,-0.00,0.54,0.00,23.92,28.40,31.31,13.90,44.90,1016.13,2026.98,3314.00,2926.85,3340.01,600.22,594.17,29.18,0000 0000 0000 0000 000000
2017-07-23 12:47:01,0.00,0.54,0.00,23.90,28.38,31.29,13.97,44.92,1016.13,2026.99,3314.00,2926.96,3340.05,600.21,594.18,29.23,0000 0000 0000 0000 000000
2017-07-23 12:52:02,0.00,0.54,0.00,23.89,28.37,31.27,13.94,45.14,1016.13,2026.99,3314.00,2926.97,3340.05,600.43,594.37,29.28,0000 0000 0000 0000 000000
2017-07-23 12:57:04,0.00,0.54,0.00,23.87,28.35,31.27,14.03,45.31,1016.14,2027.00,3313.99,2926.96,3340.01,600.23,594.11,29.33,0000 0000 0000 0000 000000